User: anonymous   Login
Location: ??
(35.4032°N, 139.3073°E)
Time: 16:28:44
(UTC+00:00)
Language:

Cosmos 1151 Rocket - Orbit

View from above orbital plane
View from above orbital plane
View from above satellite
View from above satellite

Ground track
Ground track

The orbit data is extracted from the following two-line orbital elements,

1 11672U 80005B   24171.48221606  .00000708  00000-0  71660-4 0  9993
2 11672  82.5143 182.5014 0017836  96.5956 263.7293 14.89445509404030
Epoch (UTC): 19 June 2024 11:34:23
Eccentricity: 0.0017836
inclination: 82.5143°
perigee height: 587 km
apogee height: 612 km
right ascension of ascending node: 182.5014°
argument of perigee: 96.5956°
revolutions per day: 14.89445509
mean anomaly at epoch: 263.7293°
orbit number at epoch: 40403

The dashed part of the orbit path shows where the satellite is in the earth's shadow,  

DLR